x

St. Joseph, Mi (sjom4) Weather Station

3:06pm - Sun 23rd Nov 2014 All times are CST. -6 hours from GMT.

  • Wind
  • Air Temp 51°f
  • Sea Pressure 1000.3mb
  • St. Joseph, Mi
  • St. Joseph, Mi

More Historic Weather Station data

Upgrade to MSW Pro to gain access to the past 30 days of data for over 8000 Wavebouys and Weather Stations around the globe.

Join Pro

Comparision Forecast

View Surf forecast
   
Sun 11/23 3:06pm  -  7 mph 1000.3mb 51f
3:00pm  -  3 mph 1001.4mb 51f
2:50pm 1 6 mph 1001.7mb 51f
2:40pm  -  3 mph 1002mb 51f
2:30pm  -  2 mph 1002mb 52f
2:20pm 2 7 mph 1002mb 52f
2:10pm 1 5 mph 1001.7mb 53f
2:05pm 1 9 mph 1001.7mb 53f
2:00pm 1 3 mph 1001.7mb 53f
1:50pm  -  5 mph 1002mb 54f
1:40pm 2 7 mph 1003mb 54f
1:30pm 1 8 mph 1003.4mb 54f
1:20pm 3 9 mph 1003.7mb 53f
1:10pm 3 7 mph 1003.7mb 53f
1:05pm 2 11 mph 1003.7mb 53f
1:00pm 2 8 mph 1003.7mb 53f
12:50pm 2 8 mph 1004.1mb 53f
12:40pm 5 11 mph 1004.7mb 54f
12:30pm 3 9 mph 1005.1mb 54f
12:20pm 6 8 mph 1005.4mb 54f
12:10pm 6 9 mph 1005.8mb 54f
12:04pm 2 10 mph 1005.8mb 54f
12:00pm 3 8 mph 1005.8mb 54f
11:50am 5 9 mph 1005.8mb 53f
11:40am 3 9 mph 1005.8mb 53f
11:30am 5 10 mph 1006.4mb 53f
11:20am 5 9 mph 1006.8mb 53f
11:10am 3 11 mph 1007.1mb 53f
11:04am 6 13 mph 1007.1mb 53f
11:00am 7 13 mph 1007.5mb 53f
10:50am 6 11 mph 1007.8mb 53f
10:40am 5 11 mph 1008.1mb 53f
10:30am 6 13 mph 1008.1mb 52f
10:20am 7 13 mph 1008.1mb 52f
10:10am 8 16 mph 1008.1mb 52f
10:04am 7 16 mph 1008.5mb 52f
10:00am 6 13 mph 1008.8mb 52f
9:50am 5 13 mph 1008.8mb 51f
9:40am 6 15 mph 1008.8mb 51f
9:30am 7 11 mph 1009.1mb 51f
9:20am 5 9 mph 1009.5mb 51f
9:10am 5 13 mph 1009.5mb 51f
9:03am 6 13 mph 1008.8mb 51f
9:00am 6 13 mph 1009.5mb 51f
8:50am 5 11 mph 1009.5mb 51f
8:40am 5 13 mph 1009.5mb 51f
8:30am 6 13 mph 1009.1mb 51f
8:20am 6 10 mph 1009.5mb 51f
8:10am 5 13 mph 1009.5mb 51f
8:03am 6 15 mph 1010.2mb 50f
8:00am 8 15 mph 1009.5mb 50f
7:50am 7 14 mph 1010.2mb 50f
7:40am 6 11 mph 1009.8mb 50f
7:30am 6 15 mph 1009.8mb 49f
7:20am 5 13 mph 1009.8mb 49f
7:10am 6 14 mph 1010.2mb 49f
7:02am 7 20 mph 1010.2mb 50f
7:00am 6 15 mph 1010.2mb 50f
6:50am 9 15 mph 1010.2mb 50f
6:40am 6 16 mph 1010.2mb 50f
6:30am 7 20 mph 1009.8mb 50f
6:20am 7 14 mph 1009.5mb 50f
6:10am 5 13 mph 1009.5mb 50f
6:02am 7 17 mph 1009.8mb 50f
6:00am 6 13 mph 1009.1mb 50f
5:50am 6 17 mph 1009.1mb 51f
5:40am 3 13 mph 1009.5mb 51f
5:30am 8 15 mph 1009.8mb 50f
5:20am 6 14 mph 1009.8mb 50f
5:10am 6 15 mph 1010.2mb 50f
5:01am 6 15 mph 1009.5mb 49f
5:00am 6 11 mph 1010.5mb 49f
4:50am 6 15 mph 1010.2mb 49f
4:40am 7 13 mph 1010.5mb 49f
4:30am 6 14 mph 1010.5mb 50f
4:20am 5 14 mph 1010.5mb 50f
4:10am 7 16 mph 1010.2mb 50f
4:01am 7 17 mph 1010.8mb 50f
4:00am 7 15 mph 1010.2mb 50f
3:50am 8 16 mph 1010.2mb 50f
3:40am 9 17 mph 1010.5mb 50f
3:30am 9 16 mph 1010.8mb 50f
3:20am 6 10 mph 1011.2mb 50f
3:10am 6 11 mph 1011.5mb 50f
3:01am 7 17 mph 1010.8mb 50f
3:00am 7 15 mph 1011.5mb 50f
2:50am 7 16 mph 1011.5mb 51f
2:40am 7 17 mph 1011.5mb 51f
2:30am 8 16 mph 1011.5mb 51f
2:20am 10 17 mph 1011.5mb 51f
2:10am 9 14 mph 1011.5mb 51f
2:00am 8 15 mph 1011.5mb 51f
1:50am 10 20 mph 1011.5mb 51f
1:40am 11 17 mph 1011.9mb 51f
1:30am 15 21 mph 1011.5mb 51f
1:20am 13 22 mph 1011.9mb 52f
1:10am 13 20 mph 1012.2mb 51f
1:00am 14 22 mph 1012.2mb 51f
12:50am 14 22 mph 1012.5mb 52f
12:40am 15 23 mph 1012.5mb 52f
12:30am 16 23 mph 1012.9mb 52f
12:20am 18 24 mph 1012.5mb 52f
12:10am 17 23 mph 1012.5mb 53f
12:00am 13 24 mph 1012.5mb 52f
Sat 11/22 11:59pm 14 29 mph 1012.5mb 53f
11:50pm 16 22 mph 1012.2mb 52f
11:40pm 14 24 mph 1012.2mb 53f
11:30pm 13 23 mph 1012.2mb 53f
11:20pm 17 29 mph 1012.2mb 53f
11:10pm 14 22 mph 1011.9mb 53f
11:00pm 14 23 mph 1011.9mb 53f
10:59pm 15 25 mph 1012.5mb 53f
10:50pm 16 25 mph 1011.9mb 53f
10:40pm 17 25 mph 1011.9mb 52f
10:30pm 15 23 mph 1011.9mb 52f
10:20pm 16 23 mph 1011.9mb 52f
10:10pm 20 24 mph 1012.2mb 52f
10:00pm 17 24 mph 1012.2mb 52f
9:59pm 16 28 mph 1012.9mb 52f
9:50pm 20 28 mph 1012.2mb 52f
9:40pm 17 24 mph 1012.5mb 53f
9:30pm 17 25 mph 1012.9mb 52f
9:20pm 16 22 mph 1012.9mb 51f
9:10pm 17 24 mph 1012.9mb 52f
9:00pm 16 23 mph 1012.5mb 52f
8:58pm 17 26 mph 1012.2mb 53f
8:50pm 17 26 mph 1012.5mb 53f
8:40pm 16 22 mph 1012.2mb 53f
8:30pm 16 25 mph 1012.2mb 53f
8:20pm 15 23 mph 1012.2mb 53f
8:10pm 17 25 mph 1012.5mb 52f
8:00pm 20 28 mph 1012.5mb 52f
7:58pm 21 28 mph 1012.9mb 52f
7:50pm 18 26 mph 1012.9mb 52f
7:40pm 17 25 mph 1013.2mb 52f
7:30pm 17 23 mph 1013.2mb 52f
7:20pm 14 24 mph 1013.2mb 52f
7:10pm 16 25 mph 1013.2mb 52f
7:00pm 17 22 mph 1012.9mb 52f
6:57pm 13 25 mph 1012.9mb 52f
6:50pm 15 23 mph 1012.9mb 52f
6:40pm 17 24 mph 1012.5mb 52f
6:30pm 14 25 mph 1012.5mb 52f
6:20pm 16 25 mph 1012.5mb 52f
6:10pm 15 23 mph 1012.2mb 51f
6:00pm 15 22 mph 1012.2mb 51f
5:57pm 16 22 mph 1012.9mb 51f
5:50pm 16 20 mph 1012.2mb 51f
5:40pm 10 15 mph 1012.5mb 50f
5:30pm 9 17 mph 1012.9mb 49f
5:20pm 7 14 mph 1012.9mb 49f
5:10pm 8 14 mph 1013.2mb 49f
5:00pm 8 13 mph 1013.2mb 48f
4:57pm 6 17 mph 1013.2mb 49f
4:50pm 8 14 mph 1013.2mb 49f
4:40pm 8 17 mph 1013.2mb 48f
4:30pm 7 13 mph 1013.2mb 48f
4:20pm 7 16 mph 1012.9mb 48f
4:10pm 6 13 mph 1013.2mb 48f
4:00pm 7 16 mph 1013.2mb 48f
3:56pm 7 17 mph 1012.9mb 48f
3:50pm 8 14 mph 1012.9mb 48f
3:40pm 8 15 mph 1013.2mb 48f
3:30pm 8 14 mph 1013.2mb 47f
3:20pm 8 15 mph 1013.2mb 48f
3:10pm 8 17 mph 1013.5mb 47f
3:00pm 10 17 mph 1013.2mb 47f
2:56pm 9 18 mph 1012.9mb 47f
2:50pm 10 17 mph 1013.2mb 47f
2:40pm 9 16 mph 1013.2mb 46f
2:30pm 10 17 mph 1012.9mb 46f
2:20pm 8 18 mph 1012.5mb 46f
2:10pm 10 17 mph 1012.5mb 45f
2:00pm 8 15 mph 1012.9mb 45f
1:55pm 8 17 mph 1012.9mb 45f
1:50pm 9 15 mph 1012.9mb 45f
1:40pm 9 16 mph 1013.2mb 44f
1:30pm 7 11 mph 1013.2mb 45f
1:20pm 7 17 mph 1013.2mb 45f
1:10pm 6 15 mph 1013.2mb 44f
1:00pm 8 14 mph 1013.5mb 44f
12:55pm 9 18 mph 1013.5mb 44f
12:50pm 7 15 mph 1013.9mb 44f
12:40pm 9 17 mph 1014.6mb 44f
12:30pm 9 17 mph 1014.6mb 44f
12:20pm 9 16 mph 1014.9mb 43f
12:10pm 9 18 mph 1014.9mb 43f
12:00pm 11 17 mph 1015.2mb 43f
11:55am 7 17 mph 1015.2mb 43f
11:50am 7 15 mph 1015.6mb 43f
11:40am 8 17 mph 1015.6mb 42f
11:30am 9 15 mph 1015.9mb 42f
11:20am 10 16 mph 1015.9mb 42f
11:10am 8 13 mph 1016.3mb 41f
11:00am 7 15 mph 1016.3mb 41f
10:54am 7 20 mph 1016.3mb 41f
10:50am 8 13 mph 1016.3mb 41f
10:40am 8 17 mph 1016.6mb 41f
10:30am 10 16 mph 1016.6mb 40f
10:20am 8 16 mph 1016.3mb 40f
10:10am 9 17 mph 1016.3mb 40f
10:00am 13 24 mph 1016.6mb 40f
9:54am 14 24 mph 1017.6mb 40f
9:50am 11 23 mph 1016.6mb 40f
9:40am 15 23 mph 1016.9mb 40f
9:30am 15 23 mph 1016.6mb 40f
9:20am 14 22 mph 1017.3mb 40f
9:10am 14 22 mph 1017.6mb 40f
9:00am 14 23 mph 1017.9mb 40f
8:53am 17 26 mph 1017.6mb 40f
8:50am 15 22 mph 1017.9mb 40f
8:40am 18 24 mph 1017.9mb 39f
8:30am 21 26 mph 1018.3mb 39f
8:20am 14 23 mph 1018.3mb 39f
8:10am 15 23 mph 1018.3mb 38f
8:00am 17 23 mph 1018.3mb 38f
7:53am 14 26 mph 1017.6mb 38f
7:50am 16 23 mph 1018.3mb 38f
7:40am 15 24 mph 1018.3mb 38f
7:30am 10 21 mph 1018.3mb 38f
7:20am 13 21 mph 1017.9mb 37f
7:10am 14 26 mph 1017.9mb 37f
7:00am 17 25 mph 1018.3mb 37f
6:53am 17 24 mph 1019mb 37f
6:50am 16 24 mph 1019mb 37f
6:40am 16 22 mph 1018.6mb 37f
6:30am 18 24 mph 1019mb 37f
6:20am 11 22 mph 1019mb 37f
6:10am 15 21 mph 1019.3mb 37f
6:00am 15 21 mph 1019.3mb 37f
5:52am 14 21 mph 1019mb 36f
5:50am 13 17 mph 1019.3mb 36f
5:40am 10 16 mph 1018.6mb 36f
5:30am 9 18 mph 1018.6mb 36f
5:20am 13 18 mph 1019mb 35f
5:10am 11 21 mph 1019.3mb 35f
5:00am 11 22 mph 1019.6mb 36f
4:52am 14 22 mph 1019.6mb 36f
4:50am 10 21 mph 1020mb 36f
4:40am 8 13 mph 1020mb 35f
4:30am 6 15 mph 1020mb 35f
4:20am 8 14 mph 1020.3mb 34f
4:10am 8 15 mph 1020mb 34f
4:00am 7 13 mph 1020mb 34f
3:51am 9 18 mph 1020mb 34f
3:50am 9 14 mph 1019.6mb 34f
3:40am 7 15 mph 1019.6mb 34f
3:30am 8 15 mph 1020.3mb 34f
3:20am 8 14 mph 1020.7mb 34f
3:10am 9 18 mph 1021mb 34f
3:00am 10 16 mph 1021mb 35f
2:51am 9 18 mph 1021mb 35f
2:50am 9 18 mph 1020.7mb 35f
2:40am 9 14 mph 1020.7mb 35f
2:30am 7 13 mph 1020.3mb 34f
2:20am 7 10 mph 1020.7mb 34f
2:10am 6 10 mph 1021.3mb 34f
2:00am 5 13 mph 1021.3mb 33f
1:51am 5 16 mph 1021mb 33f
1:50am 5 13 mph 1021.7mb 33f
1:40am 6 11 mph 1021.7mb 33f
1:30am 7 13 mph 1021.3mb 33f
1:20am 7 13 mph 1021.7mb 33f
1:10am 8 14 mph 1021.7mb 33f
1:00am 8 16 mph 1022mb 33f
12:50am 8 15 mph 1022mb 32f
12:40am 8 14 mph 1022.7mb 32f
12:30am 7 13 mph 1022.7mb 32f
12:20am 7 14 mph 1022.4mb 32f
12:10am 9 15 mph 1022.4mb 31f
12:00am 7 15 mph 1022.7mb 31f
Fri 11/21 11:50pm 8 16 mph 1023.4mb 31f
11:40pm 6 16 mph 1023.4mb 31f
11:30pm 8 13 mph 1023.4mb 30f
11:20pm 7 13 mph 1023.4mb 30f
11:10pm 6 14 mph 1023.4mb 30f
11:00pm 10 15 mph 1024mb 30f
10:50pm 8 15 mph 1024.7mb 30f
10:49pm 8 17 mph 1024.7mb 29f
10:40pm 10 17 mph 1024.7mb 30f
10:30pm 10 17 mph 1024mb 30f
10:20pm 8 16 mph 1023.7mb 29f
10:10pm 7 15 mph 1024.4mb 29f
10:00pm 6 17 mph 1024.7mb 28f
9:50pm 6 13 mph 1024.4mb 28f
9:49pm 5 17 mph 1024.7mb 28f
9:40pm 5 11 mph 1024.4mb 27f
9:30pm 7 16 mph 1025.4mb 27f
9:20pm 7 17 mph 1025.7mb 27f
9:10pm 5 17 mph 1025.4mb 27f
9:00pm 7 10 mph 1025.4mb 27f
8:50pm 6 11 mph 1026.4mb 27f
8:49pm 7 14 mph 1026.4mb 27f
8:40pm 5 14 mph 1026.4mb 27f
8:30pm 6 13 mph 1026.1mb 27f
8:20pm 6 11 mph 1026.4mb 27f
8:10pm 6 13 mph 1027.1mb 27f
8:00pm 5 10 mph 1027.1mb 27f
7:50pm 5 11 mph 1026.8mb 27f
7:48pm 7 13 mph 1027.4mb 27f
7:40pm 3 9 mph 1026.8mb 27f
7:30pm 5 8 mph 1027.1mb 27f
7:20pm 3 13 mph 1027.4mb 27f
7:10pm 5 10 mph 1027.8mb 27f
7:00pm 5 9 mph 1027.1mb 27f
6:50pm 2 13 mph 1027.1mb 27f
6:48pm 5 13 mph 1028.1mb 28f
6:40pm 5 9 mph 1027.1mb 27f
6:30pm 3 8 mph 1027.8mb 27f
6:20pm 3 8 mph 1028.1mb 28f
6:10pm 2 8 mph 1027.8mb 28f
6:00pm 2 6 mph 1027.8mb 28f
5:50pm 2 6 mph 1027.4mb 28f
5:47pm 2 9 mph 1027.8mb 28f
5:40pm 3 7 mph 1028.1mb 28f
5:30pm 3 8 mph 1028.1mb 29f
5:20pm 3 7 mph 1028.1mb 29f
5:10pm 3 9 mph 1028.1mb 29f
5:00pm 2 8 mph 1027.8mb 29f
4:50pm 3 7 mph 1027.4mb 29f
4:47pm 3 14 mph 1028.4mb 29f
4:40pm 2 8 mph 1027.8mb 30f
4:30pm 7 14 mph 1028.1mb 30f
4:20pm 6 10 mph 1028.4mb 30f
4:10pm 7 14 mph 1028.8mb 31f
4:00pm 6 13 mph 1028.8mb 31f
3:50pm 7 15 mph 1028.8mb 31f
3:46pm 9 15 mph 1028.1mb 31f
3:40pm 7 15 mph 1028.8mb 31f
3:30pm 6 13 mph 1028.8mb 32f
3:20pm 9 11 mph 1029.1mb 32f
3:10pm 8 13 mph 1028.4mb 32f
3:00pm 7 14 mph 1028.1mb 32f
2:50pm 9 14 mph 1028.1mb 32f
2:46pm 6 16 mph 1029.1mb 32f
2:40pm 7 15 mph 1028.4mb 32f
2:30pm 11 15 mph 1028.1mb 32f
2:20pm 7 16 mph 1028.4mb 32f
2:10pm 7 10 mph 1028.8mb 32f
2:00pm 5 13 mph 1029.1mb 33f
1:50pm 6 11 mph 1029.1mb 32f
1:46pm 7 14 mph 1029.5mb 32f
1:40pm 3 10 mph 1029.5mb 31f
1:30pm 3 13 mph 1029.8mb 31f
1:20pm 8 13 mph 1030.1mb 31f
1:10pm 5 14 mph 1030.1mb 31f
1:00pm 5 14 mph 1029.8mb 31f
12:50pm 10 14 mph 1029.8mb 31f
12:45pm 8 14 mph 1030.1mb 30f
12:40pm 7 13 mph 1030.1mb 31f
12:30pm 6 13 mph 1030.1mb 30f
12:20pm 10 14 mph 1030.5mb 29f
12:10pm 9 13 mph 1031.2mb 30f
12:00pm 9 14 mph 1031.2mb 30f
11:50am 11 13 mph 1031.2mb 29f
11:45am 10 15 mph 1031.2mb 29f
11:40am 9 11 mph 1031.2mb 30f
11:30am 9 15 mph 1031.2mb 28f
11:20am 10 14 mph 1031.2mb 29f
11:10am 10 14 mph 1031.2mb 28f
11:00am 8 14 mph 1031.5mb 28f
10:50am 8 13 mph 1032.2mb 28f
10:44am 8 14 mph 1032.2mb 28f
10:40am 8 13 mph 1032.2mb 28f
10:30am 8 14 mph 1032.2mb 28f
10:20am 8 11 mph 1031.8mb 28f
10:10am 9 13 mph 1031.5mb 28f
10:00am 8 13 mph 1031.5mb 28f
9:50am 3 8 mph 1032.2mb 28f
9:44am 3 11 mph 1032.2mb 27f
9:40am 7 9 mph 1032.2mb 27f
9:30am 7 11 mph 1031.5mb 28f
9:20am 7 10 mph 1031.2mb 28f
9:10am 7 9 mph 1031.5mb 28f
9:00am 6 9 mph 1031.8mb 27f
8:50am 5 8 mph 1031.5mb 27f
8:44am 5 11 mph 1031.5mb 27f
8:40am 7 9 mph 1030.8mb 27f
8:30am 3 8 mph 1030.8mb 26f
8:20am 3 11 mph 1031.2mb 26f
8:10am 8 9 mph 1030.8mb 26f
8:00am 6 9 mph 1030.5mb 26f
7:50am 6 7 mph 1030.1mb 26f
7:43am 3 10 mph 1030.1mb 26f
7:40am 5 7 mph 1030.8mb 26f
7:30am 6 10 mph 1030.1mb 26f
7:20am 2 8 mph 1029.8mb 26f
7:10am 6 7 mph 1030.5mb 26f
7:00am 6 10 mph 1030.1mb 25f
6:50am 3 8 mph 1029.5mb 25f
6:43am 6 15 mph 1030.1mb 25f
6:40am 7 10 mph 1029.8mb 25f
6:30am 10 15 mph 1030.1mb 25f
6:20am 9 14 mph 1029.5mb 25f
6:10am 7 10 mph 1029.5mb 25f
6:00am 8 10 mph 1029.5mb 25f
5:50am 7 10 mph 1029.5mb 25f
5:42am 8 17 mph 1029.5mb 25f
5:40am 8 11 mph 1028.8mb 25f
5:30am 9 14 mph 1029.5mb 25f
5:20am 9 13 mph 1029.1mb 25f
5:10am 9 16 mph 1028.4mb 25f
5:00am 10 15 mph 1029.1mb 25f
4:50am 10 17 mph 1028.8mb 25f
4:42am 13 18 mph 1028.8mb 25f
4:40am 14 16 mph 1028.1mb 25f
4:30am 13 18 mph 1028.8mb 25f
4:20am 13 16 mph 1028.4mb 25f
4:10am 14 16 mph 1027.8mb 25f
4:00am 9 16 mph 1028.4mb 25f
3:50am 11 16 mph 1028.1mb 25f
3:42am 11 20 mph 1027.4mb 25f
3:40am 14 16 mph 1027.4mb 25f
3:30am 11 17 mph 1028.1mb 25f
3:20am 13 18 mph 1028.1mb 25f
3:10am 14 20 mph 1027.4mb 25f
3:00am 13 18 mph 1028.1mb 24f
2:50am 13 20 mph 1028.1mb 24f
2:41am 16 23 mph 1027.8mb 24f
2:40am 16 20 mph 1027.8mb 24f
2:30am 14 18 mph 1027.1mb 25f
2:20am 14 23 mph 1027.4mb 25f
2:10am 15 20 mph 1027.4mb 25f
2:00am 15 20 mph 1027.4mb 24f
1:50am 13 20 mph 1026.8mb 24f
1:41am 15 25 mph 1026.8mb 24f
1:40am 15 21 mph 1026.4mb 24f
1:30am 15 20 mph 1027.1mb 24f
1:20am 15 22 mph 1027.1mb 24f
1:10am 16 23 mph 1026.4mb 24f
1:00am 17 25 mph 1025.7mb 24f
12:50am 21 25 mph 1026.4mb 25f
12:40am 17 28 mph 1026.4mb 25f
12:30am 18 24 mph 1026.1mb 24f
12:20am 20 28 mph 1025.4mb 24f
12:10am 16 23 mph 1026.1mb 25f
12:00am 17 25 mph 1026.1mb 25f
Thu 11/20 11:50pm 18 24 mph 1025.1mb 25f
11:40pm 17 26 mph 1024.7mb 25f
11:30pm 15 24 mph 1025.1mb 25f
11:20pm 18 25 mph 1025.1mb 25f
11:10pm 21 24 mph 1024.4mb 25f
11:00pm 22 26 mph 1024mb 25f
10:50pm 16 25 mph 1024.4mb 26f
10:40pm 20 26 mph 1023.7mb 26f
10:30pm 18 26 mph 1024mb 26f
10:20pm 21 24 mph 1023.4mb 26f
10:10pm 21 25 mph 1024mb 26f
10:00pm 18 26 mph 1024mb 26f
9:50pm 18 25 mph 1023.4mb 26f
9:40pm 18 26 mph 1022.7mb 26f
9:39pm 21
mph
1022.7mb 26f
9:30pm 20 28 mph 1023mb 26f
9:20pm 20 30 mph 1023mb 26f
9:10pm 20 30 mph 1023.4mb 27f
9:00pm 18 32 mph 1022.7mb 27f
8:51pm 20 29 mph 1022.7mb 27f
8:50pm 20 28 mph 1022mb 27f
8:40pm 22 26 mph 1021.7mb 27f
8:30pm 20 28 mph 1022.4mb 27f
8:20pm 17 28 mph 1022.4mb 27f
8:10pm 20 28 mph 1021.7mb 27f
8:00pm 21 36 mph 1021.3mb 27f
7:50pm 21 37 mph 1021.7mb 28f
7:46pm 20 37 mph 1021.3mb 28f
7:40pm 22 29 mph 1022mb 27f
7:30pm 21 29 mph 1021mb 27f
7:20pm 21 30 mph 1021mb 28f
7:10pm 22 29 mph 1020.7mb 28f
7:00pm 18 28 mph 1021.3mb 28f
6:50pm 20 29 mph 1021.3mb 28f
6:43pm 22 29 mph 1021.3mb 28f
6:40pm 25 30 mph 1021.3mb 28f
6:30pm 23 29 mph 1020.7mb 28f
6:20pm 21 29 mph 1020mb 28f
6:10pm 23 31 mph 1020.3mb 28f
6:00pm 23 30 mph 1020.3mb 28f
5:50pm 23 29 mph 1020.7mb 28f
5:41pm 18 29 mph 1020.3mb 28f
5:40pm 18 29 mph 1020.3mb 28f
5:30pm 21 29 mph 1019.6mb 28f
5:20pm 20 29 mph 1019.3mb 28f
5:10pm 25 31 mph 1019.3mb 28f
5:00pm 22 29 mph 1020mb 28f
4:50pm 25 32 mph 1019.3mb 28f
4:40pm 23 33 mph 1019mb 28f
4:39pm 21 29 mph 1018.6mb 29f
4:30pm 23 30 mph 1018.3mb 29f
4:20pm 24 30 mph 1018.6mb 28f
4:10pm 24 29 mph 1019mb 29f
4:00pm 24 29 mph 1019mb 29f
3:50pm 21 30 mph 1019mb 29f
3:40pm 22 32 mph 1018.3mb 29f
3:37pm 22
mph
1018.6mb 28f
3:30pm 24 29 mph 1017.9mb 28f
3:20pm 24 29 mph 1017.9mb 28f
3:10pm 24 32 mph 1017.9mb 28f
3:00pm 23 31 mph 1018.3mb 28f
2:50pm 22 32 mph 1017.9mb 28f
2:40pm 23 32 mph 1017.9mb 29f
2:36pm 24
mph
1017.6mb 29f
2:30pm 24 28 mph 1017.6mb 29f
2:20pm 23 34 mph 1017.3mb 29f
2:10pm 24 31 mph 1017.3mb 29f
2:00pm 23 31 mph 1017.3mb 29f
1:50pm 21 28 mph 1017.6mb 29f
1:40pm 26 33 mph 1017.6mb 29f
1:36pm 29
mph
1017.6mb 29f
1:30pm 23 34 mph 1017.3mb 29f
1:20pm 21 32 mph 1016.9mb 28f
1:10pm 24 34 mph 1016.6mb 28f
1:00pm 24 34 mph 1016.6mb 28f
12:50pm 25 32 mph 1016.9mb 28f
12:40pm 23 34 mph 1016.9mb 28f
12:35pm 25
mph
1016.9mb 28f
12:30pm 21 32 mph 1017.3mb 28f
12:20pm 25 31 mph 1017.3mb 28f
12:18pm 23 31 mph 1016.3mb 28f
12:10pm 25 33 mph 1016.9mb 28f
12:00pm 23 33 mph 1016.3mb 28f
11:50am 25 33 mph 1016.3mb 28f
11:40am 24 31 mph 1017.3mb 28f
11:35am 22
mph
1017.6mb 28f
11:30am 23 30 mph 1017.6mb 28f
11:20am 22 32 mph 1017.6mb 28f
11:16am 23 31 mph 1016.6mb 28f
11:10am 23 31 mph 1017.3mb 27f
11:00am 24 31 mph 1016.9mb 27f
10:50am 24 30 mph 1017.6mb 27f
10:40am 22 30 mph 1017.6mb 27f
10:34am 24
mph
1016.6mb 27f
10:30am 23 32 mph 1017.3mb 27f
10:20am 25 31 mph 1016.6mb 26f
10:14am 21 30 mph 1016.6mb 27f
10:10am 24 32 mph 1016.9mb 27f
10:00am 23 31 mph 1017.3mb 27f
9:50am 24 31 mph 1017.3mb 26f
9:40am 23 32 mph 1016.9mb 26f
9:30am 26 32 mph 1016.6mb 27f
9:20am 23 32 mph 1016.3mb 27f
9:10am 25 36 mph 1016.6mb 27f
9:02am 24 32 mph 1015.9mb 27f
9:00am 24 32 mph 1016.9mb 27f
8:50am 24 32 mph 1016.6mb 27f
8:40am 26 33 mph 1016.3mb 27f
8:33am 22
mph
1016.3mb 27f
8:30am 24 31 mph 1015.6mb 27f
8:20am 24 33 mph 1015.9mb 27f
8:10am 24 34 mph 1016.6mb 27f
8:00am 24 38 mph 1016.6mb 27f
7:50am 26 34 mph 1015.9mb 27f
7:40am 25 31 mph 1015.2mb 27f
7:33am 24
mph
1016.3mb 27f
7:30am 24 31 mph 1015.6mb 27f
7:20am 24 34 mph 1015.6mb 27f
7:10am 23 31 mph 1015.9mb 27f
7:00am 25 31 mph 1015.6mb 27f
6:58am 25 30 mph 1015.6mb 27f
6:50am 21 30 mph 1014.9mb 27f
6:40am 24 31 mph 1014.9mb 27f
6:32am 21
mph
1015.6mb 27f
6:30am 24 31 mph 1015.2mb 27f
6:20am 22 31 mph 1015.6mb 28f
6:10am 24 32 mph 1015.2mb 28f
6:00am 23 30 mph 1014.9mb 27f
5:57am 24 30 mph 1014.9mb 27f
5:50am 25 32 mph 1014.6mb 28f
5:40am 25 32 mph 1015.2mb 28f
5:32am 24
mph
1015.2mb 28f
5:30am 26 34 mph 1014.9mb 28f
5:20am 28 33 mph 1014.2mb 28f
5:10am 25 34 mph 1014.2mb 28f
5:00am 26 32 mph 1014.9mb 28f
4:54am 25 30 mph 1014.2mb 28f
4:50am 24 34 mph 1014.9mb 28f
4:40am 25 32 mph 1014.9mb 28f
4:32am 25
mph
1013.9mb 28f
4:30am 23 31 mph 1014.6mb 28f
4:20am 25 31 mph 1013.9mb 28f
4:10am 25 33 mph 1013.9mb 29f
4:00am 24 36 mph 1013.9mb 28f
3:53am 25 30 mph 1014.2mb 29f
3:50am 23 32 mph 1014.6mb 29f
3:40am 25 31 mph 1014.6mb 28f
3:31am 26
mph
1014.6mb 28f
3:30am 26 31 mph 1014.6mb 28f
3:20am 24 32 mph 1014.6mb 28f
3:10am 25 30 mph 1014.2mb 29f
3:00am 24 29 mph 1013.9mb 28f
2:52am 22 29 mph 1014.2mb 28f
2:50am 23 28 mph 1014.2mb 28f
2:40am 23 30 mph 1014.2mb 28f
2:31am 25
mph
1014.6mb 28f
2:30am 25 32 mph 1014.9mb 28f
2:20am 24 30 mph 1014.9mb 28f
2:10am 24 30 mph 1014.6mb 29f
2:00am 24 29 mph 1014.2mb 28f
1:50am 25 33 mph 1014.2mb 29f
1:40am 25 33 mph 1014.2mb 29f
1:38am 22 30 mph 1014.6mb 29f
1:30am 23 31 mph 1014.6mb 29f
1:20am 23 31 mph 1014.6mb 29f
1:10am 25 30 mph 1014.6mb 29f
1:00am 23 29 mph 1014.2mb 29f
12:50am 22 34 mph 1014.2mb 29f
12:40am 24 32 mph 1014.2mb 29f
12:36am 21 32 mph 1014.9mb 29f
12:30am 23 32 mph 1014.6mb 29f
12:20am 22 30 mph 1014.9mb 29f
12:10am 21 29 mph 1014.9mb 29f
12:00am 24 33 mph 1014.9mb 29f
Wed 11/19 11:50pm 22 31 mph 1014.6mb 29f
11:40pm 22 30 mph 1014.2mb 29f
11:34pm 22 30 mph 1014.9mb 29f
11:30pm 22 30 mph 1014.2mb 29f
11:20pm 22 31 mph 1014.6mb 29f
11:10pm 20 33 mph 1014.9mb 28f
11:00pm 22 30 mph 1015.2mb 28f
10:50pm 23 29 mph 1014.9mb 28f
10:40pm 22 29 mph 1014.6mb 28f
10:31pm 24 29 mph 1014.9mb 28f
10:30pm 24 31 mph 1013.9mb 28f